User: anonymous   Login
Location: Unspecified
(0.0000°N, 0.0000°E)
Time: 06:05:40
(UTC+00:00)
Language:

GALILEO 9 (205) - Orbit

View from above orbital plane
View from above orbital plane
View from above satellite
View from above satellite

Ground track
Ground track

The orbit data is extracted from the following two-line orbital elements,

1 40889U 15045A   18231.22467654 -.00000046  00000-0  00000+0 0  9995
2 40889  56.6869 300.4473 0000976 330.8541  29.2046  1.70475354 18275
Epoch (UTC): 19 August 2018 05:23:32
Eccentricity: 0.0000976
inclination: 56.6869°
perigee height: 23219 km
apogee height: 23224 km
right ascension of ascending node: 300.4473°
argument of perigee: 330.8541°
revolutions per day: 1.70475354
mean anomaly at epoch: 29.2046°
orbit number at epoch: 1827

The dashed part of the orbit path shows where the satellite is in the earth's shadow,  

DLR